| time (UTC) | temp F | wind direction | speed knots | gust knots | rain 1hr in | rain 24hr in | rain mn in | humidity % | barometer mb |
| 20260831110503 | 59 | 0 | 0.0 | 0.0 | 0.00 | 0.00 | 0.00 | 57 | 1016.5 |
| 20260831105502 | 59 | 63 | 0.0 | 0.9 | 0.00 | 0.00 | 0.00 | 58 | 1016.5 |
| 20260831104503 | 58 | 0 | 0.0 | 0.0 | 0.00 | 0.00 | 0.00 | 58 | 1016.6 |
| 20260831104002 | 58 | 0 | 0.0 | 0.0 | 0.00 | 0.00 | 0.00 | 58 | 1016.5 |
| 20260831103503 | 58 | 0 | 0.0 | 0.0 | 0.00 | 0.00 | 0.00 | 58 | 1016.6 |
| 20260831102503 | 58 | 62 | 0.0 | 0.9 | 0.00 | 0.00 | 0.00 | 57 | 1016.6 |
| 20260831102003 | 58 | 0 | 0.0 | 0.0 | 0.00 | 0.00 | 0.00 | 57 | 1016.7 |
| 20260831101002 | 58 | 0 | 0.0 | 0.0 | 0.00 | 0.00 | 0.00 | 57 | 1016.6 |
| 20260831100503 | 58 | 73 | 0.0 | 0.9 | 0.00 | 0.00 | 0.00 | 57 | 1016.7 |
| 20260831100003 | 58 | 0 | 0.0 | 0.0 | 0.00 | 0.00 | 0.00 | 56 | 1016.7 |
| 20260831095502 | 59 | 0 | 0.0 | 0.0 | 0.00 | 0.00 | 0.00 | 56 | 1016.6 |
| 20260831095003 | 59 | 0 | 0.0 | 0.0 | 0.00 | 0.00 | 0.00 | 56 | 1016.6 |
| 20260831094503 | 59 | 0 | 0.0 | 0.0 | 0.00 | 0.00 | 0.00 | 56 | 1016.5 |
| 20260831094002 | 59 | 0 | 0.0 | 0.0 | 0.00 | 0.00 | 0.00 | 56 | 1016.5 |
| 20260831093503 | 59 | 0 | 0.0 | 0.0 | 0.00 | 0.00 | 0.00 | 55 | 1016.4 |
| 20260831093003 | 59 | 0 | 0.0 | 0.0 | 0.00 | 0.00 | 0.00 | 56 | 1016.4 |
| 20260831092502 | 59 | 0 | 0.0 | 0.0 | 0.00 | 0.00 | 0.00 | 55 | 1016.4 |
| 20260831091503 | 60 | 0 | 0.0 | 0.0 | 0.00 | 0.00 | 0.00 | 55 | 1016.4 |
| 20260831091002 | 60 | 0 | 0.0 | 0.0 | 0.00 | 0.00 | 0.00 | 55 | 1016.4 |
| 20260831090003 | 60 | 73 | 0.0 | 0.9 | 0.00 | 0.00 | 0.00 | 53 | 1016.3 |
| 20260831085503 | 60 | 0 | 0.0 | 0.0 | 0.00 | 0.00 | 0.00 | 53 | 1016.4 |
| 20260831085002 | 60 | 0 | 0.0 | 0.0 | 0.00 | 0.00 | 0.00 | 53 | 1016.5 |
| 20260831084003 | 61 | 0 | 0.0 | 0.0 | 0.00 | 0.00 | 0.00 | 53 | 1016.6 |
| 20260831083503 | 61 | 0 | 0.0 | 0.0 | 0.00 | 0.00 | 0.00 | 53 | 1016.8 |
| 20260831082502 | 61 | 0 | 0.0 | 0.0 | 0.00 | 0.00 | 0.00 | 52 | 1016.7 |
| 20260831082002 | 61 | 0 | 0.0 | 0.0 | 0.00 | 0.00 | 0.00 | 52 | 1016.8 |
| 20260831081503 | 61 | 0 | 0.0 | 0.0 | 0.00 | 0.00 | 0.00 | 52 | 1016.8 |
| 20260831081003 | 61 | 0 | 0.0 | 0.0 | 0.00 | 0.00 | 0.00 | 52 | 1016.7 |
| 20260831080503 | 61 | 74 | 0.0 | 0.9 | 0.00 | 0.00 | 0.00 | 52 | 1016.8 |
| 20260831080003 | 61 | 72 | 0.0 | 1.7 | 0.00 | 0.00 | 0.00 | 53 | 1016.8 |
| 20260831075503 | 61 | 71 | 0.0 | 0.9 | 0.00 | 0.00 | 0.00 | 53 | 1017.1 |
| 20260831075003 | 61 | 71 | 0.0 | 0.9 | 0.00 | 0.00 | 0.00 | 52 | 1017.0 |
| 20260831074503 | 61 | 71 | 0.0 | 0.9 | 0.00 | 0.00 | 0.00 | 52 | 1017.1 |
| 20260831074003 | 62 | 0 | 0.0 | 0.0 | 0.00 | 0.00 | 0.00 | 52 | 1017.2 |
| 20260831073503 | 62 | 0 | 0.0 | 0.0 | 0.00 | 0.00 | 0.00 | 51 | 1017.2 |
| 20260831073003 | 62 | 0 | 0.0 | 0.0 | 0.00 | 0.00 | 0.00 | 50 | 1017.2 |
| 20260831072003 | 62 | 0 | 0.0 | 0.0 | 0.00 | 0.00 | 0.00 | 50 | 1017.0 |
| 20260831071503 | 63 | 0 | 0.0 | 0.0 | 0.00 | 0.00 | 0.00 | 49 | 1017.0 |
| 20260831071003 | 63 | 0 | 0.0 | 0.0 | 0.00 | 0.00 | 0.00 | 49 | 1017.0 |
| 20260831070503 | 63 | 0 | 0.0 | 0.0 | 0.00 | 0.00 | 0.00 | 49 | 1017.1 |
| 20260831070005 | 64 | 0 | 0.0 | 0.0 | 0.00 | 0.00 | 0.00 | 49 | 1017.1 |
| 20260831065503 | 64 | 71 | 0.0 | 0.9 | 0.00 | 0.00 | 0.00 | 49 | 1017.0 |
| 20260831064503 | 64 | 82 | 0.0 | 0.9 | 0.00 | 0.00 | 0.00 | 49 | 1017.1 |
| 20260831064003 | 64 | 82 | 0.0 | 0.9 | 0.00 | 0.00 | 0.00 | 49 | 1017.1 |
| 20260831063503 | 64 | 85 | 0.0 | 0.9 | 0.00 | 0.00 | 0.00 | 49 | 1017.1 |
| 20260831063003 | 64 | 0 | 0.0 | 0.0 | 0.00 | 0.00 | 0.00 | 49 | 1017.2 |
| 20260831062502 | 64 | 73 | 0.0 | 0.9 | 0.00 | 0.00 | 0.00 | 49 | 1017.2 |
| 20260831062003 | 64 | 0 | 0.9 | 0.0 | 0.00 | 0.00 | 0.00 | 49 | 1017.2 |
| 20260831061503 | 65 | 74 | 0.9 | 1.7 | 0.00 | 0.00 | 0.00 | 48 | 1017.2 |
| 20260831061003 | 65 | 82 | 0.9 | 1.7 | 0.00 | 0.00 | 0.00 | 48 | 1017.3 |
| 20260831055503 | 65 | 0 | 0.0 | 0.0 | 0.00 | 0.00 | 0.00 | 47 | 1017.3 |
| 20260831055003 | 66 | 0 | 0.0 | 0.0 | 0.00 | 0.00 | 0.00 | 47 | 1017.4 |
| 20260831054503 | 66 | 0 | 0.0 | 0.0 | 0.00 | 0.00 | 0.00 | 47 | 1017.5 |
| 20260831054003 | 66 | 0 | 0.0 | 0.0 | 0.00 | 0.00 | 0.00 | 46 | 1017.5 |
| 20260831053502 | 66 | 0 | 0.0 | 0.0 | 0.00 | 0.00 | 0.00 | 45 | 1017.4 |
| 20260831053003 | 67 | 0 | 0.0 | 0.0 | 0.00 | 0.00 | 0.00 | 45 | 1017.4 |
| 20260831052503 | 67 | 0 | 0.0 | 0.0 | 0.00 | 0.00 | 0.00 | 44 | 1017.4 |
| 20260831052004 | 67 | 0 | 0.0 | 0.0 | 0.00 | 0.00 | 0.00 | 44 | 1017.5 |
| 20260831051503 | 68 | 0 | 0.0 | 0.0 | 0.00 | 0.00 | 0.00 | 44 | 1017.4 |
| 20260831051003 | 68 | 0 | 0.0 | 0.0 | 0.00 | 0.00 | 0.00 | 43 | 1017.4 |
| 20260831050003 | 69 | 0 | 0.0 | 0.0 | 0.00 | 0.00 | 0.00 | 42 | 1017.4 |
| 20260831045003 | 69 | 0 | 0.0 | 0.0 | 0.00 | 0.00 | 0.00 | 41 | 1017.4 |
| 20260831044003 | 69 | 0 | 0.0 | 0.0 | 0.00 | 0.00 | 0.00 | 40 | 1017.5 |
| 20260831043003 | 70 | 0 | 0.0 | 0.0 | 0.00 | 0.00 | 0.00 | 37 | 1017.3 |
| 20260831042502 | 70 | 0 | 0.0 | 0.0 | 0.00 | 0.00 | 0.00 | 38 | 1017.2 |
| 20260831042003 | 70 | 208 | 0.0 | 1.7 | 0.00 | 0.00 | 0.00 | 37 | 1017.1 |
| 20260831041503 | 71 | 207 | 0.0 | 0.9 | 0.00 | 0.00 | 0.00 | 37 | 1017.0 |
| 20260831040504 | 71 | 195 | 0.0 | 1.7 | 0.00 | 0.00 | 0.00 | 37 | 1017.0 |
| 20260831040003 | 71 | 196 | 0.0 | 0.9 | 0.00 | 0.00 | 0.00 | 36 | 1016.9 |
| 20260831035503 | 72 | 0 | 0.0 | 0.0 | 0.00 | 0.00 | 0.00 | 36 | 1016.9 |
| 20260831034003 | 72 | 0 | 0.0 | 0.0 | 0.00 | 0.00 | 0.00 | 37 | 1016.7 |
| 20260831033502 | 72 | 0 | 0.9 | 0.0 | 0.00 | 0.00 | 0.00 | 37 | 1016.6 |
| 20260831033003 | 72 | 146 | 0.9 | 4.3 | 0.00 | 0.00 | 0.00 | 37 | 1016.6 |
| 20260831032503 | 73 | 150 | 0.9 | 3.5 | 0.00 | 0.00 | 0.00 | 37 | 1016.6 |
| 20260831032002 | 73 | 153 | 0.9 | 2.6 | 0.00 | 0.00 | 0.00 | 36 | 1016.4 |
| 20260831031503 | 73 | 145 | 0.9 | 3.5 | 0.00 | 0.00 | 0.00 | 36 | 1016.4 |
| 20260831031003 | 73 | 148 | 2.6 | 2.6 | 0.00 | 0.00 | 0.00 | 36 | 1016.3 |
| 20260831030504 | 73 | 146 | 3.5 | 3.5 | 0.00 | 0.00 | 0.00 | 36 | 1016.3 |
| 20260831030003 | 74 | 159 | 4.3 | 7.0 | 0.00 | 0.00 | 0.00 | 36 | 1016.3 |
| 20260831025004 | 74 | 170 | 4.3 | 7.8 | 0.00 | 0.00 | 0.00 | 35 | 1016.1 |
| 20260831024503 | 74 | 155 | 4.3 | 7.8 | 0.00 | 0.00 | 0.00 | 35 | 1016.2 |
| 20260831024003 | 74 | 158 | 4.3 | 7.8 | 0.00 | 0.00 | 0.00 | 34 | 1016.2 |
| 20260831023504 | 74 | 158 | 4.3 | 7.0 | 0.00 | 0.00 | 0.00 | 34 | 1016.2 |
| 20260831022004 | 76 | 177 | 3.5 | 6.1 | 0.00 | 0.00 | 0.00 | 32 | 1016.3 |
| 20260831021503 | 76 | 187 | 1.7 | 7.8 | 0.00 | 0.00 | 0.00 | 31 | 1016.1 |
| 20260831021003 | 76 | 173 | 0.9 | 6.1 | 0.00 | 0.00 | 0.00 | 29 | 1016.2 |
| 20260831020503 | 76 | 0 | 0.9 | 0.0 | 0.00 | 0.00 | 0.00 | 28 | 1016.3 |
| 20260831015503 | 77 | 238 | 4.3 | 7.0 | 0.00 | 0.00 | 0.00 | 28 | 1016.3 |
| 20260831015003 | 77 | 236 | 4.3 | 8.7 | 0.00 | 0.00 | 0.00 | 27 | 1016.3 |
| 20260831014503 | 77 | 219 | 6.1 | 7.0 | 0.00 | 0.00 | 0.00 | 26 | 1016.3 |
| 20260831014003 | 78 | 228 | 7.0 | 9.6 | 0.00 | 0.00 | 0.00 | 26 | 1016.3 |
| 20260831013503 | 78 | 227 | 7.0 | 9.6 | 0.00 | 0.00 | 0.00 | 24 | 1016.2 |
| 20260831012004 | 79 | 227 | 6.1 | 7.8 | 0.00 | 0.00 | 0.00 | 23 | 1016.3 |
| 20260831011503 | 79 | 234 | 5.2 | 9.6 | 0.00 | 0.00 | 0.00 | 23 | 1016.2 |
| 20260831011003 | 80 | 228 | 5.2 | 9.6 | 0.00 | 0.00 | 0.00 | 24 | 1016.3 |
| 20260831010004 | 80 | 240 | 7.8 | 11.3 | 0.00 | 0.00 | 0.00 | 22 | 1016.2 |
| 20260831005503 | 80 | 238 | 7.8 | 11.3 | 0.00 | 0.00 | 0.00 | 22 | 1016.2 |
| 20260831005003 | 81 | 240 | 7.0 | 10.4 | 0.00 | 0.00 | 0.00 | 24 | 1016.3 |
| 20260831004504 | 81 | 242 | 6.1 | 11.3 | 0.00 | 0.00 | 0.00 | 24 | 1016.2 |
| 20260831004003 | 81 | 242 | 7.0 | 9.6 | 0.00 | 0.00 | 0.00 | 25 | 1016.2 |
| 20260831003503 | 81 | 224 | 6.1 | 9.6 | 0.00 | 0.00 | 0.00 | 25 | 1016.3 |
| 20260831002503 | 80 | 229 | 6.1 | 10.4 | 0.00 | 0.00 | 0.00 | 25 | 1016.4 |
| 20260831002003 | 80 | 223 | 6.1 | 11.3 | 0.00 | 0.00 | 0.00 | 24 | 1016.2 |
| 20260831001503 | 80 | 221 | 6.1 | 8.7 | 0.00 | 0.00 | 0.00 | 25 | 1016.3 |
| 20260831001003 | 80 | 224 | 7.0 | 10.4 | 0.00 | 0.00 | 0.00 | 24 | 1016.1 |
| 20260831000504 | 80 | 220 | 8.7 | 10.4 | 0.00 | 0.00 | 0.00 | 25 | 1016.2 |
| 20260831000003 | 81 | 228 | 7.8 | 16.5 | 0.00 | 0.00 | 0.00 | 25 | 1016.2 |
| 20260830235503 | 82 | 230 | 7.0 | 13.9 | 0.00 | 0.00 | 0.00 | 25 | 1016.1 |
| 20260830235003 | 81 | 223 | 8.7 | 10.4 | 0.00 | 0.00 | 0.00 | 26 | 1016.2 |
| 20260830234503 | 81 | 223 | 10.4 | 12.2 | 0.00 | 0.00 | 0.00 | 25 | 1016.2 |
| 20260830234003 | 81 | 237 | 8.7 | 16.5 | 0.00 | 0.00 | 0.00 | 24 | 1016.2 |
| 20260830233003 | 81 | 235 | 7.8 | 11.3 | 0.00 | 0.00 | 0.00 | 23 | 1016.2 |
| 20260830232503 | 81 | 235 | 7.0 | 12.2 | 0.00 | 0.00 | 0.00 | 24 | 1016.3 |
| 20260830232003 | 80 | 240 | 6.1 | 13.9 | 0.00 | 0.00 | 0.00 | 24 | 1016.3 |
| 20260830231503 | 79 | 246 | 7.0 | 11.3 | 0.00 | 0.00 | 0.00 | 26 | 1016.4 |
| 20260830231004 | 79 | 247 | 7.8 | 10.4 | 0.00 | 0.00 | 0.00 | 27 | 1016.5 |
| 20260830230504 | 79 | 243 | 8.7 | 13.9 | 0.00 | 0.00 | 0.00 | 26 | 1016.5 |
| 20260830230003 | 79 | 234 | 9.6 | 15.6 | 0.00 | 0.00 | 0.00 | 26 | 1016.5 |
| 20260830225504 | 79 | 237 | 9.6 | 14.8 | 0.00 | 0.00 | 0.00 | 26 | 1016.5 |
| 20260830225003 | 80 | 239 | 8.7 | 14.8 | 0.00 | 0.00 | 0.00 | 26 | 1016.5 |
| 20260830224503 | 81 | 240 | 9.6 | 14.8 | 0.00 | 0.00 | 0.00 | 26 | 1016.5 |
| 20260830223503 | 82 | 232 | 11.3 | 17.4 | 0.00 | 0.00 | 0.00 | 23 | 1016.5 |
| 20260830223003 | 82 | 236 | 10.4 | 16.5 | 0.00 | 0.00 | 0.00 | 24 | 1016.4 |
| 20260830222504 | 83 | 241 | 10.4 | 16.5 | 0.00 | 0.00 | 0.00 | 22 | 1016.4 |
| 20260830221503 | 84 | 235 | 8.7 | 15.6 | 0.00 | 0.00 | 0.00 | 22 | 1016.5 |
| 20260830220504 | 84 | 238 | 7.0 | 13.9 | 0.00 | 0.00 | 0.00 | 22 | 1016.6 |
| 20260830220003 | 84 | 229 | 7.8 | 12.2 | 0.00 | 0.00 | 0.00 | 22 | 1016.6 |
| 20260830214503 | 84 | 241 | 5.2 | 13.9 | 0.00 | 0.00 | 0.00 | 21 | 1016.7 |
| 20260830213503 | 83 | 210 | 7.8 | 9.6 | 0.00 | 0.00 | 0.00 | 24 | 1016.9 |
| 20260830212505 | 82 | 243 | 8.7 | 13.9 | 0.00 | 0.00 | 0.00 | 23 | 1016.9 |
| 20260830212005 | 82 | 244 | 8.7 | 13.0 | 0.00 | 0.00 | 0.00 | 26 | 1017.0 |
| 20260830211506 | 82 | 249 | 8.7 | 13.0 | 0.00 | 0.00 | 0.00 | 24 | 1016.9 |
| 20260830211005 | 82 | 248 | 8.7 | 16.5 | 0.00 | 0.00 | 0.00 | 24 | 1017.0 |
| 20260830210505 | 81 | 246 | 9.6 | 13.9 | 0.00 | 0.00 | 0.00 | 25 | 1017.0 |
| 20260830210006 | 81 | 245 | 9.6 | 12.2 | 0.00 | 0.00 | 0.00 | 26 | 1016.9 |
| 20260830205506 | 81 | 247 | 8.7 | 14.8 | 0.00 | 0.00 | 0.00 | 26 | 1017.0 |
| 20260830204506 | 81 | 245 | 9.6 | 15.6 | 0.00 | 0.00 | 0.00 | 26 | 1017.1 |
| 20260830204006 | 81 | 240 | 9.6 | 14.8 | 0.00 | 0.00 | 0.00 | 26 | 1017.2 |
| 20260830203006 | 81 | 240 | 10.4 | 16.5 | 0.00 | 0.00 | 0.00 | 26 | 1017.3 |
| 20260830202506 | 81 | 232 | 9.6 | 15.6 | 0.00 | 0.00 | 0.00 | 26 | 1017.2 |
| 20260830202005 | 81 | 238 | 8.7 | 14.8 | 0.00 | 0.00 | 0.00 | 28 | 1017.4 |
| 20260830201505 | 82 | 240 | 7.8 | 14.8 | 0.00 | 0.00 | 0.00 | 26 | 1017.3 |
| 20260830200006 | 81 | 236 | 9.6 | 13.0 | 0.00 | 0.00 | 0.00 | 27 | 1017.3 |
| 20260830195506 | 81 | 236 | 10.4 | 13.9 | 0.00 | 0.00 | 0.00 | 27 | 1017.4 |
| 20260830194506 | 81 | 237 | 9.6 | 17.4 | 0.00 | 0.00 | 0.00 | 27 | 1017.5 |
| 20260830194005 | 80 | 237 | 10.4 | 18.2 | 0.00 | 0.00 | 0.00 | 28 | 1017.6 |
| 20260830193506 | 80 | 238 | 9.6 | 14.8 | 0.00 | 0.00 | 0.00 | 29 | 1017.6 |
| 20260830193006 | 80 | 240 | 9.6 | 14.8 | 0.00 | 0.00 | 0.00 | 28 | 1017.5 |
| 20260830192506 | 80 | 240 | 9.6 | 12.2 | 0.00 | 0.00 | 0.00 | 29 | 1017.6 |
| 20260830191005 | 79 | 240 | 10.4 | 16.5 | 0.00 | 0.00 | 0.00 | 33 | 1017.8 |
| 20260830190506 | 79 | 238 | 11.3 | 16.5 | 0.00 | 0.00 | 0.00 | 33 | 1017.7 |
| 20260830190005 | 79 | 234 | 11.3 | 17.4 | 0.00 | 0.00 | 0.00 | 34 | 1017.8 |
| 20260830185506 | 79 | 234 | 10.4 | 15.6 | 0.00 | 0.00 | 0.00 | 35 | 1017.7 |
| 20260830185006 | 79 | 237 | 10.4 | 15.6 | 0.00 | 0.00 | 0.00 | 36 | 1017.7 |
| 20260830184506 | 79 | 238 | 9.6 | 14.8 | 0.00 | 0.00 | 0.00 | 36 | 1017.7 |
| 20260830184006 | 79 | 236 | 9.6 | 13.9 | 0.00 | 0.00 | 0.00 | 36 | 1017.7 |
| 20260830183506 | 78 | 237 | 9.6 | 16.5 | 0.00 | 0.00 | 0.00 | 37 | 1017.8 |
| 20260830182506 | 78 | 237 | 7.8 | 13.0 | 0.00 | 0.00 | 0.00 | 38 | 1017.8 |
| 20260830182006 | 78 | 242 | 8.7 | 12.2 | 0.00 | 0.00 | 0.00 | 38 | 1017.7 |
| 20260830181006 | 78 | 236 | 9.6 | 16.5 | 0.00 | 0.00 | 0.00 | 38 | 1017.7 |
| 20260830175506 | 78 | 235 | 7.8 | 13.0 | 0.00 | 0.00 | 0.00 | 39 | 1017.8 |
| 20260830174506 | 77 | 240 | 9.6 | 14.8 | 0.00 | 0.00 | 0.00 | 39 | 1017.9 |
| 20260830173506 | 77 | 243 | 7.8 | 13.0 | 0.00 | 0.00 | 0.00 | 41 | 1018.0 |
| 20260830173006 | 76 | 240 | 6.1 | 13.0 | 0.00 | 0.00 | 0.00 | 42 | 1018.0 |
| 20260830171506 | 76 | 240 | 6.1 | 11.3 | 0.00 | 0.00 | 0.00 | 45 | 1018.1 |
| 20260830171006 | 76 | 250 | 5.2 | 8.7 | 0.00 | 0.00 | 0.00 | 45 | 1018.2 |
| 20260830170006 | 75 | 240 | 4.3 | 7.0 | 0.00 | 0.00 | 0.00 | 46 | 1018.0 |
| 20260830165505 | 75 | 244 | 4.3 | 8.7 | 0.00 | 0.00 | 0.00 | 46 | 1018.1 |
| 20260830165006 | 75 | 244 | 3.5 | 7.8 | 0.00 | 0.00 | 0.00 | 47 | 1018.1 |
| 20260830164506 | 74 | 237 | 2.6 | 7.8 | 0.00 | 0.00 | 0.00 | 48 | 1018.1 |
| 20260830164006 | 74 | 232 | 1.7 | 3.5 | 0.00 | 0.00 | 0.00 | 48 | 1018.2 |
| 20260830163006 | 73 | 237 | 0.9 | 4.3 | 0.00 | 0.00 | 0.00 | 50 | 1018.3 |
| 20260830162006 | 72 | 306 | 0.0 | 2.6 | 0.00 | 0.00 | 0.00 | 54 | 1018.3 |
| 20260830160506 | 69 | 51 | 0.0 | 0.9 | 0.00 | 0.00 | 0.00 | 59 | 1018.5 |
| 20260830160006 | 68 | 54 | 0.0 | 0.9 | 0.00 | 0.00 | 0.00 | 61 | 1018.6 |
| 20260830155506 | 66 | 60 | 0.0 | 0.9 | 0.00 | 0.00 | 0.00 | 63 | 1018.7 |
| 20260830155006 | 65 | 72 | 0.0 | 0.9 | 0.00 | 0.00 | 0.00 | 65 | 1018.6 |
| 20260830154506 | 64 | 0 | 0.0 | 0.0 | 0.00 | 0.00 | 0.00 | 66 | 1018.3 |
| 20260830153506 | 63 | 0 | 0.0 | 0.0 | 0.00 | 0.00 | 0.00 | 67 | 1018.4 |
| 20260830152503 | 64 | 0 | 0.0 | 0.0 | 0.00 | 0.00 | 0.00 | 60 | 1018.0 |
| 20260830152002 | 64 | 0 | 0.0 | 0.0 | 0.00 | 0.00 | 0.00 | 60 | 1018.0 |
| 20260830151503 | 64 | 0 | 0.0 | 0.0 | 0.00 | 0.00 | 0.00 | 60 | 1018.0 |
| 20260830151002 | 64 | 0 | 0.0 | 0.0 | 0.00 | 0.00 | 0.00 | 60 | 1018.0 |
| 20260830150003 | 64 | 0 | 0.0 | 0.0 | 0.00 | 0.00 | 0.00 | 60 | 1018.0 |
| 20260830145003 | 64 | 0 | 0.0 | 0.0 | 0.00 | 0.00 | 0.00 | 60 | 1018.0 |
| 20260830144503 | 64 | 0 | 0.0 | 0.0 | 0.00 | 0.00 | 0.00 | 60 | 1018.0 |
| 20260830144002 | 64 | 0 | 0.0 | 0.0 | 0.00 | 0.00 | 0.00 | 60 | 1018.0 |
| 20260830143002 | 64 | 0 | 0.0 | 0.0 | 0.00 | 0.00 | 0.00 | 60 | 1018.0 |
| 20260830142503 | 64 | 0 | 0.0 | 0.0 | 0.00 | 0.00 | 0.00 | 60 | 1018.0 |
| 20260830141502 | 64 | 0 | 0.0 | 0.0 | 0.00 | 0.00 | 0.00 | 60 | 1018.0 |
| 20260830140002 | 64 | 0 | 0.0 | 0.0 | 0.00 | 0.00 | 0.00 | 60 | 1018.0 |
| 20260830135003 | 64 | 0 | 0.0 | 0.0 | 0.00 | 0.00 | 0.00 | 60 | 1018.0 |
| 20260830134502 | 64 | 0 | 0.0 | 0.0 | 0.00 | 0.00 | 0.00 | 60 | 1018.0 |
| 20260830134003 | 64 | 0 | 0.0 | 0.0 | 0.00 | 0.00 | 0.00 | 60 | 1018.0 |
| 20260830133502 | 64 | 0 | 0.0 | 0.0 | 0.00 | 0.00 | 0.00 | 60 | 1018.0 |
| 20260830133003 | 64 | 0 | 0.0 | 0.0 | 0.00 | 0.00 | 0.00 | 60 | 1018.0 |
| 20260830132503 | 64 | 0 | 0.0 | 0.0 | 0.00 | 0.00 | 0.00 | 60 | 1018.0 |
| 20260830132002 | 64 | 0 | 0.0 | 0.0 | 0.00 | 0.00 | 0.00 | 60 | 1018.0 |
| 20260830131003 | 64 | 0 | 0.0 | 0.0 | 0.00 | 0.00 | 0.00 | 60 | 1018.0 |
| 20260830130502 | 64 | 0 | 0.0 | 0.0 | 0.00 | 0.00 | 0.00 | 60 | 1018.0 |
| 20260830130003 | 64 | 0 | 0.0 | 0.0 | 0.00 | 0.00 | 0.00 | 60 | 1018.0 |
| 20260830125502 | 64 | 0 | 0.0 | 0.0 | 0.00 | 0.00 | 0.00 | 60 | 1018.0 |
| 20260830125003 | 64 | 0 | 0.0 | 0.0 | 0.00 | 0.00 | 0.00 | 60 | 1018.0 |
| 20260830124502 | 64 | 0 | 0.0 | 0.0 | 0.00 | 0.00 | 0.00 | 60 | 1018.0 |
| 20260830124003 | 64 | 0 | 0.0 | 0.0 | 0.00 | 0.00 | 0.00 | 60 | 1018.0 |
| 20260830123503 | 64 | 0 | 0.0 | 0.0 | 0.00 | 0.00 | 0.00 | 60 | 1018.0 |
| 20260830123002 | 64 | 0 | 0.0 | 0.0 | 0.00 | 0.00 | 0.00 | 60 | 1018.0 |
| 20260830122503 | 64 | 0 | 0.0 | 0.0 | 0.00 | 0.00 | 0.00 | 60 | 1018.0 |
| 20260830122003 | 64 | 0 | 0.0 | 0.0 | 0.00 | 0.00 | 0.00 | 60 | 1018.0 |
| 20260830121503 | 64 | 0 | 0.0 | 0.0 | 0.00 | 0.00 | 0.00 | 60 | 1018.0 |
| 20260830121003 | 64 | 0 | 0.0 | 0.0 | 0.00 | 0.00 | 0.00 | 60 | 1018.0 |
| 20260830120502 | 64 | 0 | 0.0 | 0.0 | 0.00 | 0.00 | 0.00 | 60 | 1018.0 |
| 20260830120003 | 64 | 0 | 0.0 | 0.0 | 0.00 | 0.00 | 0.00 | 60 | 1018.0 |
| 20260830115502 | 64 | 0 | 0.0 | 0.0 | 0.00 | 0.00 | 0.00 | 60 | 1018.0 |
| 20260830115003 | 64 | 0 | 0.0 | 0.0 | 0.00 | 0.00 | 0.00 | 60 | 1018.0 |
| 20260830114502 | 64 | 0 | 0.0 | 0.0 | 0.00 | 0.00 | 0.00 | 60 | 1018.0 |
| 20260830114003 | 64 | 0 | 0.0 | 0.0 | 0.00 | 0.00 | 0.00 | 60 | 1018.0 |
| 20260830113503 | 64 | 0 | 0.0 | 0.0 | 0.00 | 0.00 | 0.00 | 60 | 1018.0 |
| 20260830113002 | 64 | 0 | 0.0 | 0.0 | 0.00 | 0.00 | 0.00 | 60 | 1018.0 |
| 20260830112503 | 64 | 0 | 0.0 | 0.0 | 0.00 | 0.00 | 0.00 | 60 | 1018.0 |
| 20260830112003 | 64 | 0 | 0.0 | 0.0 | 0.00 | 0.00 | 0.00 | 60 | 1018.0 |
| 20260830111002 | 64 | 0 | 0.0 | 0.0 | 0.00 | 0.00 | 0.00 | 60 | 1018.0 |